EHI
0 0 0 0 0 0 0 1 3 6 6 5 7 7 6 5 4 3 5 7 13 19 22 25 28 30 30 32 35 37 35 31 31 34 37 40 41 40 38 33 26 23 23 22
0 0 0 0 0 0 1 2 5 7 6 6 7 8 8 6 4 3 4 6 11 17 22 24 27 29 30 31 32 33 32 30 29 33 35 37 39 39 38 34 28 25 24 23
1 0 0 1 2 1 1 2 5 6 5 5 7 8 9 9 6 4 5 7 10 15 21 24 26 28 29 29 29 28 28 27 28 30 33 33 34 36 37 36 32 28 26 25
1 0 0 1 3 3 2 3 5 5 5 5 5 7 9 11 9 7 8 10 13 16 21 23 25 26 27 27 26 25 24 25 28 30 31 32 32 32 34 34 32 28 27 27
1 0 0 1 3 4 4 6 8 7 6 5 4 6 10 13 12 10 12 16 17 18 20 23 24 26 26 25 24 22 21 23 27 30 31 32 32 32 31 30 27 23 22 24
0 0 0 2 3 4 5 8 9 9 8 7 6 7 11 14 14 14 17 21 20 19 21 24 26 27 26 24 23 23 22 24 27 30 30 31 32 32 31 28 22 18 17 18
0 0 0 1 4 6 8 9 8 9 10 11 12 12 14 15 15 18 20 21 20 20 21 23 25 27 26 24 23 23 24 25 28 30 29 30 31 32 30 26 20 16 16 15
1 1 2 4 7 9 11 11 8 8 10 12 13 14 13 13 15 18 19 19 19 20 22 22 23 24 25 24 23 23 24 25 27 28 27 26 28 29 28 24 19 16 14 12
2 3 5 8 9 9 10 9 8 8 8 9 10 10 9 10 12 15 16 17 18 20 22 22 22 22 23 24 23 24 25 26 27 27 25 23 24 25 25 21 17 13 10 8
3 3 5 7 7 6 5 5 6 6 7 8 8 7 7 8 10 12 13 15 17 18 20 21 22 22 22 22 22 24 26 26 27 26 24 21 21 21 21 19 16 12 8 6
2 2 2 3 4 3 1 2 3 4 5 6 6 5 5 6 8 8 9 11 14 15 16 17 19 20 19 18 19 22 24 24 24 24 22 19 17 16 15 14 12 10 7 6
1 1 2 3 3 1 0 1 1 2 3 3 3 3 3 4 6 6 6 7 9 10 11 11 12 13 16 16 18 21 22 20 18 18 18 17 15 11 8 6 5 4 3 3
1 2 3 3 3 1 1 2 2 2 2 1 1 1 2 3 5 5 4 4 5 6 7 7 7 8 12 15 16 19 20 17 14 13 14 14 14 10 5 3 1 1 0 1
2 3 3 3 3 3 3 3 2 2 1 0 0 1 2 3 4 4 3 3 4 5 5 6 5 6 10 13 14 16 17 15 12 10 10 11 10 8 5 3 2 2 1 0
2 2 3 3 3 3 2 2 1 1 0 0 0 1 2 2 3 3 3 2 3 4 5 6 6 7 9 12 13 13 13 12 10 9 8 7 6 3 2 1 2 3 3 2
1 1 3 3 2 1 1 1 0 0 0 0 0 0 1 1 2 4 3 2 3 4 5 6 7 8 9 10 11 11 9 8 8 6 6 5 2 0 0 0 1 3 4 3
1 2 3 3 1 0 0 0 0 0 0 0 0 1 1 1 2 3 3 3 3 3 4 5 6 7 7 8 9 7 6 5 4 4 4 4 2 1 1 1 2 3 3 2
3 3 3 2 1 0 0 0 0 0 0 0 0 1 2 3 3 3 3 3 3 3 2 3 5 5 5 5 5 4 4 4 3 2 3 3 3 2 3 3 2 2 2 1
3 3 3 1 0 0 0 0 0 0 0 0 0 2 3 3 3 3 3 3 3 2 1 2 4 5 4 3 2 2 2 2 2 2 2 2 2 1 1 1 1 1 1 1
2 2 2 1 0 0 0 0 0 0 0 0 0 1 2 3 3 3 2 2 2 1 1 1 2 3 3 2 1 1 1 1 1 1 1 1 1 0 0 0 0 0 1 2
1 1 1 0 0 0 1 1 0 0 0 0 0 1 2 3 3 1 1 1 1 1 1 1 1 1 1 1 0 0 0 0 0 0 0 0 0 0 0 0 0 1 2 3
0 0 0 0 0 0 1 2 1 0 0 0 0 1 2 2 2 1 0 0 0 1 1 0 0 0 0 0 0 0 0 0 0 0 0 0 0 0 0 0 1 2 3 3
0 0 0 0 0 0 1 2 2 1 0 0 1 2 2 1 1 0 0 0 0 0 0 0 0 0 0 0 0 0 0 0 0 0 0 0 0 0 0 1 2 3 3 3
0 0 0 0 0 0 0 1 2 2 2 1 2 2 1 0 0 0 0 0 0 0 0 0 0 0 0 0 0 0 0 0 0 0 0 0 0 1 1 2 3 3 2 1
0 0 0 0 0 0 0 0 1 3 3 2 2 1 0 0 0 0 0 0 0 0 0 0 0 0 0 0 0 0 0 0 0 0 0 0 1 2 2 2 2 1 1 0
0 0 0 0 0 0 0 0 1 3 3 1 1 1 1 0 0 0 0 0 0 0 0 0 0 0 0 0 0 0 0 0 0 0 1 1 2 3 2 1 1 0 0 0
0 0 0 0 0 0 0 1 2 2 1 0 1 2 2 1 0 0 0 0 0 0 0 0 0 0 0 0 0 0 0 0 0 1 2 2 3 3 1 0 0 0 0 0
Wind_Speed
11 9 9 8 9 10 8 7 6 3 1 1 2 3 4 4 4 5 5 4 4 4 4 3 2 2 1 0 1 1 3 4 5 5 4 4 4 4 4 4 5 4 4 4
13 12 11 11 9 9 7 5 4 1 1 3 3 5 5 5 5 5 5 4 4 4 3 3 2 1 1 1 1 1 2 3 4 4 5 5 5 4 4 4 4 4 5 5
12 12 12 10 8 6 3 3 1 1 0 1 3 4 5 5 5 5 5 5 5 4 3 2 2 2 1 1 1 1 2 3 3 4 5 5 6 5 5 4 4 4 4 4
10 10 13 4 4 3 2 0 1 1 2 2 2 2 4 5 5 5 5 5 5 4 3 2 1 2 1 1 0 1 2 3 3 3 4 4 5 5 4 4 4 4 3 3
8 10 9 3 4 5 3 1 4 3 2 2 1 2 5 7 6 5 4 4 3 4 3 2 1 1 1 1 1 2 2 2 3 3 4 4 4 5 5 4 4 4 4 4
9 11 9 3 5 5 2 2 4 3 3 3 3 1 3 6 6 6 4 4 3 3 3 2 1 1 1 1 1 2 2 2 2 2 3 4 4 4 4 4 4 4 4 4
9 9 3 6 7 5 2 1 4 5 5 5 5 4 4 5 5 6 5 5 4 3 3 3 2 1 1 2 2 3 2 3 3 2 3 3 3 3 4 4 4 4 4 4
5 6 2 8 6 5 4 4 5 6 5 5 4 4 4 5 5 5 5 5 4 3 3 2 2 2 2 2 2 3 3 3 3 3 3 3 3 3 4 4 5 5 4 4
1 2 4 6 6 5 4 4 4 3 4 4 3 4 4 4 4 4 4 4 4 4 3 3 3 2 3 3 3 3 3 3 2 3 3 2 3 4 5 5 5 4 4 5
1 3 3 4 5 6 5 4 4 4 3 4 3 4 4 3 3 3 4 3 3 3 4 3 3 3 3 3 3 2 3 3 2 2 3 2 3 4 4 4 5 4 4 4
2 2 3 4 5 5 5 5 5 5 4 4 4 4 4 4 4 3 4 4 3 3 3 4 3 3 3 3 3 3 3 3 3 3 3 3 3 2 3 3 4 5 4 3
3 4 4 2 4 5 5 5 6 6 5 4 4 4 5 5 4 4 4 4 4 4 4 4 4 4 4 3 3 3 3 3 3 3 2 3 3 2 1 2 4 5 3 2
3 4 4 3 4 5 5 5 5 6 5 5 4 4 4 4 4 4 5 4 4 4 5 4 4 4 4 4 3 3 4 4 4 4 3 3 3 3 3 1 2 3 5 5
4 4 4 5 5 6 6 7 6 6 6 5 4 4 4 4 5 5 5 5 5 5 5 5 5 4 3 3 4 5 5 5 4 4 4 3 4 4 4 4 3 3 4 7
4 4 4 5 6 6 6 6 6 6 6 6 5 4 4 4 5 5 5 5 5 5 5 5 5 5 4 4 4 5 5 4 4 4 4 4 3 4 4 4 3 3 3 4
4 4 4 6 6 6 6 7 6 6 7 6 5 4 5 5 5 6 5 5 4 5 6 6 6 6 5 4 5 4 4 5 5 4 4 3 3 3 3 3 2 3 3 3
5 5 5 6 6 7 6 7 7 7 7 6 6 6 6 6 5 5 5 5 4 4 5 5 6 6 6 5 5 5 5 4 4 4 4 3 3 3 3 2 2 3 3 3
4 5 6 6 6 7 7 7 7 7 7 7 6 6 6 5 5 5 5 6 5 5 5 5 5 6 6 6 5 5 5 4 3 4 3 2 2 2 3 3 3 3 3 3
5 5 6 7 7 6 6 6 7 7 7 7 7 6 6 5 5 5 5 5 5 5 5 5 5 5 6 6 6 4 5 4 4 3 2 2 2 2 3 3 2 2 2 2
5 5 6 7 7 6 6 6 6 6 6 6 7 6 6 5 4 4 4 4 4 4 4 4 5 4 5 6 7 5 4 4 4 3 3 2 2 2 2 2 2 2 1 2
6 6 7 7 7 6 6 6 6 7 6 7 7 7 6 5 4 4 4 4 3 3 4 4 3 3 4 6 7 5 5 4 3 2 2 2 2 2 2 2 2 2 1 1
6 6 7 7 7 7 6 6 6 7 7 7 7 7 6 5 4 4 4 3 3 2 3 3 3 3 5 7 5 5 5 5 4 2 2 2 1 1 2 2 2 2 1 1
6 6 7 7 7 7 6 6 6 6 7 7 7 6 6 5 4 4 3 2 2 2 3 2 2 3 6 6 4 4 5 5 3 3 2 1 1 1 1 1 1 1 1 1
6 6 6 7 7 7 7 7 7 6 6 6 5 5 5 4 4 3 2 2 2 3 4 2 3 4 6 5 4 4 4 4 3 3 3 2 2 2 1 1 1 1 1 1
6 6 6 6 6 6 6 7 7 5 5 5 5 5 4 3 3 3 3 3 3 4 3 3 4 6 5 4 4 4 3 3 3 4 3 2 2 1 1 1 2 2 1 0
5 5 4 5 5 5 6 6 5 5 5 5 5 4 4 3 3 2 3 4 5 4 4 3 3 4 4 4 4 4 3 2 2 2 3 2 2 2 1 1 2 2 2 1
5 4 4 5 5 5 6 5 5 5 5 5 5 5 5 4 3 2 3 4 4 4 3 2 3 3 4 4 3 3 2 2 2 2 2 2 2 2 2 2 1 1 2 2
Wind_Direction
276 276 276 270 270 272 271 270 264 262 261 24 52 73 70 66 54 49 52 55 46 45 48 46 57 43 355 142 172 188 187 190 195 197 196 193 191 191 188 189 196 196 196 204
271 268 269 273 268 266 272 285 266 273 25 24 29 34 46 54 49 44 37 32 29 28 35 29 29 8 303 251 219 203 214 205 198 194 197 199 196 192 189 193 197 195 201 206
272 270 269 263 271 262 258 306 269 120 64 39 47 39 42 36 37 39 28 19 11 9 19 14 359 340 292 242 209 212 226 215 200 200 197 197 201 195 193 195 199 201 207 202
271 269 264 278 300 286 228 215 337 122 96 76 57 71 66 47 35 34 25 13 0 352 2 4 5 354 344 319 206 229 237 228 202 204 196 189 189 188 195 195 203 203 205 205
265 261 255 258 310 311 295 34 25 59 43 35 26 89 71 39 29 27 24 14 2 354 344 346 352 344 322 298 254 245 241 241 213 208 200 195 194 192 193 196 199 204 207 208
255 261 260 302 325 311 293 160 17 28 38 20 0 359 42 21 13 14 19 21 8 2 355 355 344 343 316 306 292 281 262 252 243 229 204 204 196 192 191 195 199 205 209 209
254 259 256 349 331 318 258 54 23 21 32 42 36 28 9 10 14 9 8 17 15 9 3 357 345 338 321 314 305 296 285 271 254 240 218 205 193 194 192 198 207 211 209 208
260 254 263 357 3 26 29 26 28 26 28 36 39 32 14 9 7 5 2 9 9 5 5 357 349 341 321 308 304 302 293 282 264 238 233 215 195 198 206 205 209 213 210 213
350 65 56 32 51 49 40 25 23 13 10 15 17 10 5 2 2 357 352 1 356 353 353 355 348 338 322 317 313 303 297 279 265 249 237 211 197 204 209 207 210 214 212 215
35 94 70 52 42 33 25 13 356 352 354 358 359 355 355 352 352 355 344 342 342 345 339 333 334 331 318 311 310 305 293 282 254 243 238 226 214 211 211 210 209 214 212 213
346 30 49 54 24 11 359 346 346 340 339 350 345 343 341 339 339 343 331 335 338 338 323 321 327 325 313 315 316 307 299 284 267 251 239 224 230 240 221 215 210 213 221 213
324 339 323 341 353 336 337 341 339 331 332 339 336 334 333 329 333 332 325 327 329 329 321 320 322 319 321 320 310 303 293 288 282 270 245 223 213 228 277 237 191 189 195 202
335 333 342 332 332 336 332 329 327 325 321 321 328 326 325 325 324 321 321 322 319 317 319 317 315 311 320 317 313 297 287 283 279 278 267 243 228 222 214 224 204 200 203 195
358 348 338 329 330 332 325 323 326 326 320 316 323 319 315 314 315 315 319 318 318 319 319 316 309 308 317 316 309 302 287 274 268 266 266 255 239 233 226 213 204 216 216 204
344 340 323 318 322 323 320 317 318 321 322 324 322 319 315 314 314 310 312 315 317 318 316 312 311 309 311 306 301 297 292 279 267 263 263 260 247 240 239 228 212 208 197 189
326 321 321 316 313 311 311 312 313 315 315 315 316 314 311 305 302 305 309 316 324 326 325 323 322 316 311 309 305 295 292 281 273 269 266 264 266 256 245 233 217 216 211 186
321 320 318 313 311 308 308 309 309 308 310 312 314 312 303 297 298 308 317 324 327 323 325 327 324 320 312 306 303 297 295 288 270 268 265 258 259 268 265 242 223 219 221 192
317 316 314 310 309 308 308 308 308 306 308 309 306 305 300 299 304 311 315 320 321 323 327 326 331 322 319 322 315 304 302 296 275 270 269 272 271 264 263 263 241 227 217 186
328 326 323 318 312 307 306 307 307 308 312 309 305 303 298 299 303 301 305 308 311 313 319 326 323 314 318 324 316 298 294 291 283 275 264 253 260 259 258 263 262 251 240 207
321 321 317 316 314 312 310 312 313 312 311 314 309 301 299 299 298 302 306 299 298 306 309 310 305 308 310 322 316 301 301 291 277 276 272 249 243 251 258 268 275 273 254 213
331 330 326 322 321 320 316 314 309 307 310 311 306 301 303 303 298 293 290 290 299 312 303 288 284 307 322 323 305 307 310 306 291 273 272 264 252 253 260 266 269 268 250 213
337 333 327 323 323 325 325 320 315 313 315 314 313 313 308 298 295 292 287 287 286 300 296 293 298 325 322 310 300 307 309 308 309 300 288 287 273 264 264 271 269 260 240 223
338 332 327 326 324 322 321 318 312 307 309 313 311 308 307 306 302 298 298 304 299 287 279 281 292 301 302 292 291 299 302 306 303 298 291 286 280 272 271 275 277 277 270 214
330 327 325 324 323 321 320 314 310 307 307 303 298 302 307 306 306 308 314 311 293 269 278 261 246 275 281 273 285 293 298 302 302 295 286 275 269 271 271 275 276 273 268 235
324 322 320 322 321 316 314 310 307 307 307 306 310 309 304 304 309 320 321 310 290 265 267 252 243 256 265 279 291 294 298 306 309 305 303 314 311 304 319 331 331 319 310 275
322 315 315 311 310 311 312 312 313 316 318 323 322 317 312 306 307 318 311 307 308 295 281 274 268 264 270 280 290 294 294 292 295 298 313 323 327 325 330 326 327 316 318 354
314 312 308 308 315 317 315 315 319 325 329 326 319 316 315 311 312 325 322 317 312 302 296 289 285 280 282 288 287 284 291 302 308 314 321 337 354 354 344 324 324 322 325 353